Date,TemperatureHighF,TemperatureAvgF,TemperatureLowF,DewpointHighF,DewpointAvgF,DewpointLowF,HumidityHigh,HumidityAvg,HumidityLow,PressureMaxIn,PressureMinIn,WindSpeedMaxMPH,WindSpeedAvgMPH,GustSpeedMaxMPH,PrecipitationSumIn
2013-8-1,93.1,80.5,72.2,77.7,74.3,69.2,96,83,50,30.05,29.92,16,2,0,0.98
2013-8-2,89.8,81.4,74.9,78.4,75.4,72.6,97,83,61,30.06,29.93,7,2,0,0.00
2013-8-3,89.6,81.1,76.8,78.6,76.4,73.4,96,86,65,30.11,30.01,6,2,0,0.29
2013-8-4,89.6,83.5,78.0,80.3,77.7,75.1,97,84,66,30.10,30.01,8,2,0,0.06
2013-8-5,89.9,84.3,79.6,78.9,77.7,75.3,94,81,65,30.05,29.94,7,2,0,0.03
2013-8-6,90.4,82.2,78.6,79.8,77.2,73.3,96,86,60,29.99,29.90,8,1,0,0.19
2013-8-7,90.9,81.2,76.9,78.3,76.2,73.4,95,86,61,29.96,29.89,7,2,0,0.36
2013-8-8,92.3,81.3,75.5,78.9,75.8,72.8,96,85,55,30.01,29.92,15,4,0,0.70
2013-8-9,90.2,78.9,71.9,77.7,74.7,70.0,97,88,57,30.05,29.95,10,3,0,0.96
2013-8-10,92.9,83.8,76.2,78.4,75.1,72.5,94,77,53,30.10,30.01,9,5,0,0.00
2013-8-11,94.2,85.8,77.7,78.3,75.9,73.2,93,74,53,30.13,30.03,8,4,0,0.00
2013-8-12,94.1,85.3,77.0,77.5,74.3,70.2,93,72,47,30.13,30.00,6,2,0,0.00
2013-8-13,93.7,83.9,75.6,78.6,76.2,73.4,96,78,53,30.05,29.93,12,3,0,1.32
2013-8-14,91.0,83.1,75.5,77.5,75.5,73.1,97,79,57,30.02,29.91,5,2,0,0.00
2013-8-15,85.2,80.2,76.8,78.6,76.1,74.0,95,87,78,30.06,29.95,7,2,0,0.03
2013-8-16,94.3,84.5,78.3,79.0,76.2,71.0,95,77,52,30.05,29.94,8,2,0,0.00
2013-8-17,93.7,83.0,76.9,79.7,76.7,73.2,94,83,54,30.07,29.97,11,3,0,0.25
2013-8-18,91.2,81.7,74.3,79.5,76.4,72.2,96,85,62,30.10,29.97,9,3,0,1.37
2013-8-19,90.8,79.9,74.3,78.9,75.7,72.8,97,88,62,30.08,29.95,8,2,0,0.49
2013-8-20,89.5,80.8,73.6,78.2,75.0,71.9,96,83,62,30.06,29.98,9,2,0,0.01
2013-8-21,91.0,82.7,78.0,79.8,76.9,73.6,95,84,64,30.07,29.97,13,3,0,0.14
2013-8-22,93.1,81.3,74.3,79.7,76.1,71.5,97,86,57,30.05,29.94,8,3,0,0.97
2013-8-23,91.8,79.9,74.4,79.9,76.2,72.2,98,89,62,30.01,29.93,6,2,0,0.82
2013-8-24,93.6,81.6,75.6,78.9,75.7,72.8,97,84,52,30.13,29.97,10,2,0,0.39
2013-8-25,89.3,79.5,74.8,79.4,75.5,73.3,96,88,66,30.14,30.02,10,2,0,0.06
2013-8-26,89.9,78.8,74.1,79.3,74.9,70.6,96,89,59,30.12,29.99,9,1,0,0.62
2013-8-27,87.9,78.2,73.4,76.5,73.9,71.3,96,87,61,30.05,29.97,6,1,0,0.50
2013-8-28,87.3,79.0,73.8,76.7,73.8,71.9,96,85,61,30.04,29.97,7,2,0,0.01
2013-8-29,88.9,80.9,73.8,77.8,74.1,70.9,95,81,57,30.04,29.92,5,2,0,0.01
2013-8-30,90.1,81.2,75.9,77.8,74.9,70.3,94,82,59,30.00,29.89,6,1,0,0.02
2013-8-31,89.4,82.2,76.1,78.4,74.8,73.2,95,80,60,29.98,29.90,5,2,0,0.00